,,Stat6,,Stat2,,Stat8,,Stat9,,Stat10,,Wind1,,Wind1,
time,status,PA1M_AVG,status,PR1M_SUM,status,RH1M_AVG,status,SR1M_AVG,status,TA1M_AVG,status,W1dAve1m,status,W1sAve1m,
2005-09-24, 00:00:00,VALID,918.903,VALID,0,VALID,100,VALID,0.0169808,VALID,19.6662,VALID,345,VALID,0.308503,
2005-09-24, 00:01:01,VALID,918.891,VALID,0,VALID,100,VALID,0,VALID,19.6625,VALID,344,VALID,0.354288,
2005-09-24, 00:02:00,VALID,918.911,VALID,0,VALID,100,VALID,0.0169808,VALID,19.6657,VALID,313,VALID,0.556548,
2005-09-24, 00:03:00,VALID,918.912,VALID,0,VALID,100,VALID,0,VALID,19.6853,VALID,289,VALID,0.397615,
2005-09-24, 00:04:01,VALID,918.922,VALID,0,VALID,100,VALID,0.0169808,VALID,19.6943,VALID,333,VALID,0.370164,
2005-09-24, 00:05:00,VALID,918.918,VALID,0,VALID,100,VALID,0.0339617,VALID,19.6975,VALID,335,VALID,0.281068,
2005-09-24, 00:06:00,VALID,918.913,VALID,0,VALID,100,VALID,0,VALID,19.6846,VALID,313,VALID,0.324673,
2005-09-24, 00:07:01,VALID,918.92,VALID,0,VALID,100,VALID,0,VALID,19.7017,VALID,313,VALID,0.185014,
2005-09-24, 00:08:00,VALID,918.915,VALID,0,VALID,100,VALID,0,VALID,19.7236,VALID,313,VALID,0.211632,
2005-09-24, 00:09:00,VALID,918.912,VALID,0,VALID,100,VALID,0.0169808,VALID,19.7427,VALID,313,VALID,0.0575133,
2005-09-24, 00:10:01,VALID,918.891,VALID,0,VALID,100,VALID,0.0679233,VALID,19.7323,VALID,326,VALID,0.149805,
2005-09-24, 00:11:00,VALID,918.891,VALID,0,VALID,100,VALID,0,VALID,19.7621,VALID,13,VALID,0.357812,
2005-09-24, 00:12:00,VALID,918.872,VALID,0,VALID,100,VALID,0,VALID,19.7586,VALID,113,VALID,0.654948,
2005-09-24, 00:13:00,VALID,918.881,VALID,0,VALID,100,VALID,0.0339617,VALID,19.7365,VALID,152,VALID,0.93314,
2005-09-24, 00:14:01,VALID,918.884,VALID,0,VALID,100,VALID,0.0339617,VALID,19.697,VALID,153,VALID,1.20694,
2005-09-24, 00:15:01,VALID,918.88,VALID,0,VALID,100,VALID,0,VALID,19.6558,VALID,144,VALID,0.900534,
2005-09-24, 00:16:00,VALID,918.904,VALID,0,VALID,100,VALID,0.0169808,VALID,19.6136,VALID,145,VALID,1.08278,
2005-09-24, 00:17:00,VALID,918.908,VALID,0,VALID,100,VALID,0,VALID,19.5718,VALID,146,VALID,1.45046,
2005-09-24, 00:18:01,VALID,918.911,VALID,0,VALID,100,VALID,0,VALID,19.5554,VALID,151,VALID,0.829799,
2005-09-24, 00:19:00,VALID,918.9,VALID,0,VALID,100,VALID,0.0169808,VALID,19.5557,VALID,149,VALID,1.23594,
2005-09-24, 00:20:01,VALID,918.897,VALID,0,VALID,100,VALID,0,VALID,19.5527,VALID,147,VALID,1.40551,
2005-09-24, 00:21:01,VALID,918.919,VALID,0,VALID,100,VALID,0.0339617,VALID,19.5492,VALID,137,VALID,1.55196,
2005-09-24, 00:22:00,VALID,918.935,VALID,0,VALID,100,VALID,0.0339617,VALID,19.5363,VALID,128,VALID,1.30984,
2005-09-24, 00:23:01,VALID,918.952,VALID,0,VALID,100,VALID,0.0339617,VALID,19.5328,VALID,116,VALID,1.09593,
2005-09-24, 00:24:00,VALID,918.948,VALID,0,VALID,100,VALID,0.0169808,VALID,19.5393,VALID,129,VALID,1.61537,
2005-09-24, 00:25:01,VALID,918.949,VALID,0,VALID,100,VALID,0.0169808,VALID,19.543,VALID,148,VALID,1.11955,
2005-09-24, 00:26:01,VALID,918.956,VALID,0,VALID,100,VALID,0,VALID,19.5492,VALID,132,VALID,1.3125,
2005-09-24, 00:27:00,VALID,918.947,VALID,0,VALID,100,VALID,0,VALID,19.546,VALID,138,VALID,0.787729,
2005-09-24, 00:28:01,VALID,918.933,VALID,0,VALID,100,VALID,0,VALID,19.5525,VALID,140,VALID,1.23845,
2005-09-24, 00:29:00,VALID,918.897,VALID,0,VALID,100,VALID,0.0339617,VALID,19.5358,VALID,139,VALID,1.10338,
2005-09-24, 00:30:00,VALID,918.877,VALID,0,VALID,100,VALID,0,VALID,19.5261,VALID,130,VALID,1.23066,
2005-09-24, 00:31:01,VALID,918.873,VALID,0,VALID,100,VALID,0,VALID,19.5294,VALID,133,VALID,1.13653,
2005-09-24, 00:32:01,VALID,918.853,VALID,0,VALID,100,VALID,0,VALID,19.543,VALID,137,VALID,1.46584,
2005-09-24, 00:33:00,VALID,918.872,VALID,0,VALID,100,VALID,0,VALID,19.5457,VALID,142,VALID,1.10211,
2005-09-24, 00:34:00,VALID,918.869,VALID,0,VALID,100,VALID,0.0169808,VALID,19.5626,VALID,153,VALID,0.882068,
2005-09-24, 00:35:01,VALID,918.881,VALID,0,VALID,100,VALID,0,VALID,19.5557,VALID,155,VALID,1.06458,
2005-09-24, 00:36:00,VALID,918.867,VALID,0,VALID,100,VALID,0.0169808,VALID,19.5495,VALID,159,VALID,1.03698,
2005-09-24, 00:37:00,VALID,918.851,VALID,0,VALID,100,VALID,0.0169808,VALID,19.5688,VALID,163,VALID,0.934048,
2005-09-24, 00:38:01,VALID,918.837,VALID,0,VALID,100,VALID,0,VALID,19.5651,VALID,162,VALID,0.879179,
2005-09-24, 00:39:00,VALID,918.839,VALID,0,VALID,100,VALID,0,VALID,19.5751,VALID,161,VALID,0.708079,
2005-09-24, 00:40:00,VALID,918.84,VALID,0,VALID,100,VALID,0,VALID,19.5718,VALID,146,VALID,0.721912,
2005-09-24, 00:41:00,VALID,918.844,VALID,0,VALID,100,VALID,0.0169808,VALID,19.5621,VALID,137,VALID,0.804688,
2005-09-24, 00:42:00,VALID,918.839,VALID,0,VALID,100,VALID,0.0169808,VALID,19.5659,VALID,141,VALID,0.448765,
2005-09-24, 00:43:00,VALID,918.82,VALID,0,VALID,100,VALID,0,VALID,19.5691,VALID,138,VALID,0.772166,
2005-09-24, 00:44:00,VALID,918.797,VALID,0,VALID,100,VALID,0,VALID,19.5589,VALID,164,VALID,0.872954,
2005-09-24, 00:45:00,VALID,918.784,VALID,0,VALID,100,VALID,0.0169808,VALID,19.5557,VALID,162,VALID,0.904154,
2005-09-24, 00:46:00,VALID,918.764,VALID,0,VALID,100,VALID,-0.0339617,VALID,19.5597,VALID,168,VALID,0.658594,
2005-09-24, 00:47:01,VALID,918.741,VALID,0,VALID,100,VALID,-0.101885,VALID,19.5604,VALID,172,VALID,0.895703,
2005-09-24, 00:48:01,VALID,918.73,VALID,0,VALID,100,VALID,-0.0849042,VALID,19.5636,VALID,197,VALID,0.597656,
2005-09-24, 00:49:01,VALID,918.729,VALID,0,VALID,100,VALID,-0.0679233,VALID,19.5731,VALID,241,VALID,1.01953,
2005-09-24, 00:50:01,VALID,918.745,VALID,0,VALID,100,VALID,-0.118866,VALID,19.5899,VALID,235,VALID,0.635861,
2005-09-24, 00:51:00,VALID,918.746,VALID,0,VALID,100,VALID,-0.0849042,VALID,19.5867,VALID,185,VALID,0.461868,
2005-09-24, 00:52:00,VALID,918.79,VALID,0,VALID,100,VALID,-0.0849042,VALID,19.5991,VALID,183,VALID,0.0503049,
2005-09-24, 00:53:00,VALID,918.807,VALID,0,VALID,100,VALID,-0.101885,VALID,19.6257,VALID,122,VALID,0.507241,
2005-09-24, 00:54:01,VALID,918.84,VALID,0,VALID,100,VALID,-0.101885,VALID,19.6379,VALID,56,VALID,0.175781,
2005-09-24, 00:55:01,VALID,918.847,VALID,0,VALID,100,VALID,-0.0849042,VALID,19.6381,VALID,29,VALID,0.593023,
2005-09-24, 00:56:00,VALID,918.826,VALID,0,VALID,100,VALID,-0.0849042,VALID,19.625,VALID,36,VALID,0.589311,
2005-09-24, 00:57:01,VALID,918.806,VALID,0,VALID,100,VALID,-0.0849042,VALID,19.6314,VALID,52,VALID,0.181818,
2005-09-24, 00:58:01,VALID,918.794,VALID,0,VALID,100,VALID,-0.101885,VALID,19.6287,VALID,43,VALID,0.117001,
2005-09-24, 00:59:00,VALID,918.764,VALID,0,VALID,100,VALID,-0.101885,VALID,19.6188,VALID,8,VALID,0.531059,
2005-09-24, 01:00:00,VALID,918.734,VALID,0,VALID,100,VALID,-0.0679233,VALID,19.6322,VALID,8,VALID,0.331143,
2005-09-24, 01:01:01,VALID,918.696,VALID,0,VALID,100,VALID,-0.0339617,VALID,19.6312,VALID,289,VALID,0.448661,
2005-09-24, 01:02:01,VALID,918.646,VALID,0,VALID,100,VALID,0.0169808,VALID,19.6275,VALID,235,VALID,0.208519,
2005-09-24, 01:03:00,VALID,918.594,VALID,0,VALID,100,VALID,0.0169808,VALID,19.6364,VALID,235,VALID,0.301339,
2005-09-24, 01:04:01,VALID,918.556,VALID,0,VALID,100,VALID,0.0169808,VALID,19.6662,VALID,235,VALID,0.12221,
2005-09-24, 01:05:01,VALID,918.495,VALID,0,VALID,100,VALID,0,VALID,19.6593,VALID,235,VALID,0.161644,
2005-09-24, 01:06:01,VALID,918.478,VALID,0,VALID,100,VALID,0.0169808,VALID,19.6429,VALID,253,VALID,0.220109,
2005-09-24, 01:07:01,VALID,918.49,VALID,0,VALID,100,VALID,0.0169808,VALID,19.6168,VALID,293,VALID,0.481399,
2005-09-24, 01:08:01,VALID,918.508,VALID,0,VALID,100,VALID,0,VALID,19.6106,VALID,293,VALID,0.0430596,
2005-09-24, 01:09:01,VALID,918.526,VALID,0,VALID,100,VALID,0,VALID,19.6111,VALID,293,VALID,0,
2005-09-24, 01:10:01,VALID,918.54,VALID,0,VALID,100,VALID,0.0169808,VALID,19.6173,VALID,293,VALID,0,
2005-09-24, 01:11:00,VALID,918.553,VALID,0,VALID,100,VALID,0.0169808,VALID,19.627,VALID,293,VALID,0,
2005-09-24, 01:12:01,VALID,918.538,VALID,0,VALID,100,VALID,0.0169808,VALID,19.6399,VALID,293,VALID,0.0800347,
2005-09-24, 01:13:00,VALID,918.514,VALID,0,VALID,100,VALID,0.0169808,VALID,19.656,VALID,293,VALID,0.185454,
2005-09-24, 01:14:01,VALID,918.5,VALID,0,VALID,100,VALID,0,VALID,19.6583,VALID,293,VALID,0.0154433,
2005-09-24, 01:15:01,VALID,918.466,VALID,0,VALID,100,VALID,0,VALID,19.6786,VALID,293,VALID,0,
2005-09-24, 01:16:00,VALID,918.44,VALID,0,VALID,100,VALID,-0.0509425,VALID,19.6794,VALID,293,VALID,0,
2005-09-24, 01:17:01,VALID,918.413,VALID,0,VALID,100,VALID,-0.101885,VALID,19.6997,VALID,293,VALID,0.0330669,
2005-09-24, 01:18:01,VALID,918.389,VALID,0,VALID,100,VALID,-0.0849042,VALID,19.6637,VALID,293,VALID,0.14027,
2005-09-24, 01:19:01,VALID,918.355,VALID,0,VALID,100,VALID,-0.0849042,VALID,19.6707,VALID,293,VALID,0.00560462,
2005-09-24, 01:20:01,VALID,918.32,VALID,0,VALID,100,VALID,-0.101885,VALID,19.6833,VALID,293,VALID,0.0140625,
2005-09-24, 01:21:01,VALID,918.302,VALID,0,VALID,100,VALID,-0.0679233,VALID,19.7059,VALID,293,VALID,0,
2005-09-24, 01:22:01,VALID,918.285,VALID,0,VALID,100,VALID,-0.101885,VALID,19.703,VALID,293,VALID,0,
2005-09-24, 01:23:01,VALID,918.284,VALID,0,VALID,100,VALID,-0.101885,VALID,19.6928,VALID,293,VALID,0,
2005-09-24, 01:24:01,VALID,918.277,VALID,0,VALID,100,VALID,-0.101885,VALID,19.7027,VALID,293,VALID,0.0241477,
2005-09-24, 01:25:01,VALID,918.295,VALID,0,VALID,100,VALID,-0.118866,VALID,19.7067,VALID,316,VALID,0.405903,
2005-09-24, 01:26:01,VALID,918.323,VALID,0,VALID,100,VALID,-0.101885,VALID,19.6804,VALID,78,VALID,0.623757,
2005-09-24, 01:27:01,VALID,918.375,VALID,0,VALID,100,VALID,-0.101885,VALID,19.6742,VALID,81,VALID,0.636814,
2005-09-24, 01:28:01,VALID,918.43,VALID,0,VALID,100,VALID,-0.101885,VALID,19.6679,VALID,88,VALID,0.479861,
2005-09-24, 01:29:01,VALID,918.481,VALID,0,VALID,100,VALID,-0.0849042,VALID,19.664,VALID,115,VALID,0.585227,
2005-09-24, 01:30:01,VALID,918.526,VALID,0,VALID,100,VALID,-0.101885,VALID,19.6605,VALID,116,VALID,0.622656,
2005-09-24, 01:31:01,VALID,918.563,VALID,0,VALID,100,VALID,-0.101885,VALID,19.6831,VALID,124,VALID,0.394159,
2005-09-24, 01:32:01,VALID,918.587,VALID,0,VALID,100,VALID,-0.0849042,VALID,19.6769,VALID,136,VALID,0.916061,
2005-09-24, 01:33:01,VALID,918.614,VALID,0,VALID,100,VALID,-0.0849042,VALID,19.6702,VALID,139,VALID,1.16787,
2005-09-24, 01:34:01,VALID,918.607,VALID,0,VALID,100,VALID,-0.101885,VALID,19.6513,VALID,137,VALID,1.52229,
2005-09-24, 01:35:01,VALID,918.601,VALID,0,VALID,100,VALID,-0.101885,VALID,19.6317,VALID,133,VALID,1.4974,
2005-09-24, 01:36:01,VALID,918.611,VALID,0,VALID,100,VALID,-0.0849042,VALID,19.6088,VALID,130,VALID,1.37536,
2005-09-24, 01:37:01,VALID,918.613,VALID,0,VALID,100,VALID,-0.0849042,VALID,19.6026,VALID,119,VALID,1.07173,
2005-09-24, 01:38:01,VALID,918.613,VALID,0,VALID,100,VALID,-0.0849042,VALID,19.6185,VALID,121,VALID,1.10137,
2005-09-24, 01:39:01,VALID,918.631,VALID,0,VALID,100,VALID,-0.0849042,VALID,19.622,VALID,101,VALID,0.816034,
2005-09-24, 01:40:01,VALID,918.627,VALID,0,VALID,100,VALID,-0.101885,VALID,19.6247,VALID,99,VALID,1.12988,
2005-09-24, 01:41:01,VALID,918.622,VALID,0,VALID,100,VALID,-0.0679233,VALID,19.6188,VALID,76,VALID,0.803472,
2005-09-24, 01:42:01,VALID,918.632,VALID,0,VALID,100,VALID,-0.0679233,VALID,19.6314,VALID,75,VALID,0.503516,
2005-09-24, 01:43:01,VALID,918.621,VALID,0,VALID,100,VALID,-0.0679233,VALID,19.6409,VALID,76,VALID,0.990412,
2005-09-24, 01:44:01,VALID,918.617,VALID,0,VALID,100,VALID,-0.101885,VALID,19.6121,VALID,74,VALID,1.11272,
2005-09-24, 01:45:01,VALID,918.608,VALID,0,VALID,100,VALID,-0.101885,VALID,19.5994,VALID,69,VALID,1.11719,
2005-09-24, 01:46:01,VALID,918.6,VALID,0,VALID,100,VALID,0,VALID,19.5892,VALID,65,VALID,0.991425,
2005-09-24, 01:47:00,VALID,918.582,VALID,0,VALID,100,VALID,0.0339617,VALID,19.5748,VALID,93,VALID,1.22578,
2005-09-24, 01:48:00,VALID,918.583,VALID,0,VALID,100,VALID,0.0169808,VALID,19.5589,VALID,95,VALID,1.14117,
2005-09-24, 01:49:00,VALID,918.585,VALID,0,VALID,100,VALID,0,VALID,19.5363,VALID,92,VALID,1.34002,
2005-09-24, 01:50:00,VALID,918.572,VALID,0,VALID,100,VALID,0.0339617,VALID,19.5363,VALID,108,VALID,1.27717,
2005-09-24, 01:51:00,VALID,918.565,VALID,0,VALID,100,VALID,0.0169808,VALID,19.5204,VALID,92,VALID,1.13396,
2005-09-24, 01:52:00,VALID,918.555,VALID,0,VALID,100,VALID,0.0169808,VALID,19.5269,VALID,100,VALID,0.964334,
2005-09-24, 01:53:00,VALID,918.543,VALID,0,VALID,100,VALID,0.0509425,VALID,19.5269,VALID,81,VALID,0.936928,
2005-09-24, 01:54:00,VALID,918.528,VALID,0,VALID,100,VALID,0,VALID,19.5299,VALID,69,VALID,0.869851,
2005-09-24, 01:55:00,VALID,918.501,VALID,0,VALID,100,VALID,0.0339617,VALID,19.543,VALID,45,VALID,0.912202,
2005-09-24, 01:56:00,VALID,918.477,VALID,0,VALID,100,VALID,0,VALID,19.5527,VALID,56,VALID,1.08173,
2005-09-24, 01:57:00,VALID,918.467,VALID,0,VALID,100,VALID,0,VALID,19.5465,VALID,57,VALID,0.703316,
2005-09-24, 01:58:00,VALID,918.445,VALID,0,VALID,100,VALID,0.0169808,VALID,19.5559,VALID,58,VALID,0.438072,
2005-09-24, 01:59:00,VALID,918.424,VALID,0,VALID,100,VALID,0,VALID,19.5659,VALID,58,VALID,0.575195,
2005-09-24, 02:00:00,VALID,918.396,VALID,0,VALID,100,VALID,0.0169808,VALID,19.585,VALID,58,VALID,0.58689,
2005-09-24, 02:01:00,VALID,918.374,VALID,0,VALID,100,VALID,0.0169808,VALID,19.5982,VALID,65,VALID,0.51399,
2005-09-24, 02:02:00,VALID,918.354,VALID,0,VALID,100,VALID,0,VALID,19.5783,VALID,96,VALID,0.721989,
2005-09-24, 02:03:00,VALID,918.326,VALID,0,VALID,100,VALID,0.0169808,VALID,19.5751,VALID,97,VALID,0.610465,
2005-09-24, 02:04:00,VALID,918.326,VALID,0,VALID,100,VALID,0.0169808,VALID,19.5723,VALID,97,VALID,0.455793,
2005-09-24, 02:05:00,VALID,918.322,VALID,0.2,VALID,100,VALID,0,VALID,19.5619,VALID,99,VALID,0.450893,
2005-09-24, 02:06:00,VALID,918.329,VALID,0,VALID,100,VALID,0,VALID,19.5624,VALID,106,VALID,0.458984,
2005-09-24, 02:07:00,VALID,918.336,VALID,0,VALID,100,VALID,0,VALID,19.5753,VALID,149,VALID,0.905506,
2005-09-24, 02:08:00,VALID,918.336,VALID,0,VALID,100,VALID,-0.0169808,VALID,19.5654,VALID,144,VALID,1.0129,
2005-09-24, 02:09:00,VALID,918.355,VALID,0,VALID,100,VALID,0.0169808,VALID,19.5525,VALID,141,VALID,1.07422,
2005-09-24, 02:10:00,VALID,918.358,VALID,0,VALID,100,VALID,0,VALID,19.5266,VALID,138,VALID,1.2351,
2005-09-24, 02:11:00,VALID,918.373,VALID,0,VALID,100,VALID,0.0339617,VALID,19.5299,VALID,142,VALID,1.20465,
2005-09-24, 02:12:00,VALID,918.386,VALID,0,VALID,100,VALID,0.0169808,VALID,19.5167,VALID,131,VALID,1.04855,
2005-09-24, 02:13:00,VALID,918.387,VALID,0,VALID,100,VALID,0.0339617,VALID,19.5107,VALID,128,VALID,0.84375,
2005-09-24, 02:14:00,VALID,918.357,VALID,0,VALID,100,VALID,0,VALID,19.501,VALID,124,VALID,0.803234,
2005-09-24, 02:15:00,VALID,918.317,VALID,0,VALID,100,VALID,0,VALID,19.4976,VALID,128,VALID,0.697976,
2005-09-24, 02:16:00,VALID,918.27,VALID,0,VALID,100,VALID,-0.0509425,VALID,19.4851,VALID,75,VALID,0.265625,
2005-09-24, 02:17:00,VALID,918.216,VALID,0,VALID,100,VALID,-0.0849042,VALID,19.4956,VALID,83,VALID,0.340511,
2005-09-24, 02:18:00,VALID,918.162,VALID,0,VALID,100,VALID,-0.0849042,VALID,19.5023,VALID,103,VALID,0.255145,
2005-09-24, 02:19:00,VALID,918.125,VALID,0,VALID,100,VALID,-0.0849042,VALID,19.4923,VALID,166,VALID,0.512536,
2005-09-24, 02:20:00,VALID,918.077,VALID,0,VALID,100,VALID,-0.101885,VALID,19.4926,VALID,183,VALID,0.543255,
2005-09-24, 02:21:00,VALID,918.067,VALID,0,VALID,100,VALID,-0.101885,VALID,19.4856,VALID,183,VALID,0.430246,
2005-09-24, 02:22:00,VALID,918.067,VALID,0,VALID,100,VALID,-0.0679233,VALID,19.4928,VALID,183,VALID,0.155086,
2005-09-24, 02:23:00,VALID,918.069,VALID,0,VALID,100,VALID,-0.101885,VALID,19.4926,VALID,165,VALID,0.119368,
2005-09-24, 02:24:00,VALID,918.07,VALID,0,VALID,100,VALID,-0.0679233,VALID,19.509,VALID,70,VALID,0.750822,
2005-09-24, 02:25:00,VALID,918.073,VALID,0,VALID,100,VALID,-0.0849042,VALID,19.5087,VALID,58,VALID,1.12119,
2005-09-24, 02:26:00,VALID,918.077,VALID,0,VALID,100,VALID,-0.0849042,VALID,19.4995,VALID,58,VALID,1.28957,
2005-09-24, 02:27:00,VALID,918.079,VALID,0,VALID,100,VALID,-0.0849042,VALID,19.4993,VALID,61,VALID,1.23765,
2005-09-24, 02:28:00,VALID,918.065,VALID,0,VALID,100,VALID,-0.0849042,VALID,19.4965,VALID,58,VALID,1.05022,
2005-09-24, 02:29:00,VALID,918.053,VALID,0,VALID,100,VALID,-0.101885,VALID,19.4898,VALID,60,VALID,1.13863,
2005-09-24, 02:30:00,VALID,918.022,VALID,0,VALID,100,VALID,-0.0849042,VALID,19.4965,VALID,40,VALID,1.3737,
2005-09-24, 02:31:00,VALID,918.011,VALID,0,VALID,100,VALID,-0.0509425,VALID,19.4854,VALID,52,VALID,0.862165,
2005-09-24, 02:32:00,VALID,917.997,VALID,0,VALID,100,VALID,0.0169808,VALID,19.4846,VALID,29,VALID,0.814135,
2005-09-24, 02:33:00,VALID,917.981,VALID,0,VALID,100,VALID,0,VALID,19.4983,VALID,32,VALID,0.525856,
2005-09-24, 02:34:00,VALID,917.979,VALID,0,VALID,100,VALID,0,VALID,19.4851,VALID,32,VALID,0.00533537,
2005-09-24, 02:35:00,VALID,917.964,VALID,0,VALID,100,VALID,0,VALID,19.4819,VALID,32,VALID,0.0367543,
2005-09-24, 02:36:00,VALID,917.941,VALID,0,VALID,100,VALID,0.0169808,VALID,19.4752,VALID,37,VALID,0.252907,
2005-09-24, 02:37:00,VALID,917.924,VALID,0,VALID,100,VALID,0,VALID,19.4556,VALID,118,VALID,0.653773,
2005-09-24, 02:38:00,VALID,917.893,VALID,0,VALID,100,VALID,0,VALID,19.4593,VALID,145,VALID,0.806463,
2005-09-24, 02:39:00,VALID,917.896,VALID,0,VALID,100,VALID,0,VALID,19.4558,VALID,137,VALID,0.674679,
2005-09-24, 02:40:00,VALID,917.891,VALID,0,VALID,100,VALID,0,VALID,19.4432,VALID,128,VALID,0.376453,
2005-09-24, 02:41:00,VALID,917.874,VALID,0,VALID,100,VALID,0,VALID,19.4593,VALID,99,VALID,0.579268,
2005-09-24, 02:42:00,VALID,917.87,VALID,0,VALID,100,VALID,0,VALID,19.466,VALID,66,VALID,0.860328,
2005-09-24, 02:43:00,VALID,917.857,VALID,0,VALID,100,VALID,0,VALID,19.4494,VALID,63,VALID,0.942336,
2005-09-24, 02:44:00,VALID,917.86,VALID,0,VALID,100,VALID,-0.0169808,VALID,19.4466,VALID,63,VALID,0.796693,
2005-09-24, 02:45:00,VALID,917.858,VALID,0,VALID,100,VALID,-0.0169808,VALID,19.4171,VALID,74,VALID,0.880809,
2005-09-24, 02:46:00,VALID,917.844,VALID,0,VALID,100,VALID,-0.0169808,VALID,19.4171,VALID,64,VALID,0.739462,
2005-09-24, 02:47:00,VALID,917.841,VALID,0,VALID,100,VALID,0,VALID,19.4268,VALID,74,VALID,0.726172,
2005-09-24, 02:48:00,VALID,917.827,VALID,0,VALID,100,VALID,0,VALID,19.4298,VALID,68,VALID,0.577398,
2005-09-24, 02:49:00,VALID,917.815,VALID,0.2,VALID,100,VALID,0,VALID,19.427,VALID,76,VALID,0.707403,
2005-09-24, 02:50:00,VALID,917.809,VALID,0,VALID,100,VALID,0,VALID,19.4365,VALID,77,VALID,0.48383,
2005-09-24, 02:51:00,VALID,917.801,VALID,0,VALID,100,VALID,0,VALID,19.4432,VALID,62,VALID,0.626143,
2005-09-24, 02:52:00,VALID,917.804,VALID,0,VALID,100,VALID,0,VALID,19.4593,VALID,60,VALID,0.23274,
2005-09-24, 02:53:00,VALID,917.795,VALID,0,VALID,100,VALID,0,VALID,19.4789,VALID,60,VALID,0.184482,
2005-09-24, 02:54:00,VALID,917.826,VALID,0,VALID,100,VALID,0.0169808,VALID,19.4921,VALID,60,VALID,0.162972,
2005-09-24, 02:55:00,VALID,917.823,VALID,0,VALID,100,VALID,0,VALID,19.4722,VALID,60,VALID,0.231898,
2005-09-24, 02:56:00,VALID,917.849,VALID,0,VALID,100,VALID,-0.0169808,VALID,19.4854,VALID,61,VALID,0.387695,
2005-09-24, 02:57:00,VALID,917.855,VALID,0,VALID,100,VALID,-0.0169808,VALID,19.4757,VALID,90,VALID,0.521763,
2005-09-24, 02:58:00,VALID,917.867,VALID,0,VALID,100,VALID,0,VALID,19.473,VALID,100,VALID,0.491629,
2005-09-24, 02:59:00,VALID,917.894,VALID,0,VALID,100,VALID,0,VALID,19.4628,VALID,121,VALID,0.767671,
2005-09-24, 03:00:00,VALID,917.901,VALID,0,VALID,100,VALID,-0.0169808,VALID,19.463,VALID,116,VALID,0.919389,
2005-09-24, 03:01:00,VALID,917.925,VALID,0,VALID,100,VALID,0,VALID,19.4563,VALID,103,VALID,1.23247,
2005-09-24, 03:02:00,VALID,917.962,VALID,0,VALID,100,VALID,-0.0169808,VALID,19.4466,VALID,96,VALID,1.19297,
2005-09-24, 03:03:00,VALID,917.983,VALID,0,VALID,100,VALID,0,VALID,19.433,VALID,85,VALID,1.07011,
2005-09-24, 03:04:00,VALID,918.02,VALID,0,VALID,100,VALID,0.0169808,VALID,19.4496,VALID,88,VALID,1.0142,
2005-09-24, 03:05:00,VALID,918.034,VALID,0,VALID,100,VALID,0,VALID,19.43,VALID,81,VALID,0.899554,
2005-09-24, 03:06:00,VALID,918.035,VALID,0,VALID,100,VALID,0,VALID,19.4305,VALID,85,VALID,0.816939,
2005-09-24, 03:07:00,VALID,918.032,VALID,0,VALID,100,VALID,0,VALID,19.4235,VALID,84,VALID,0.373935,
2005-09-24, 03:08:00,VALID,918.023,VALID,0,VALID,100,VALID,-0.0339617,VALID,19.4335,VALID,93,VALID,0.36756,
2005-09-24, 03:09:00,VALID,918.035,VALID,0,VALID,100,VALID,0,VALID,19.4335,VALID,93,VALID,0.0815217,
2005-09-24, 03:10:00,VALID,918.047,VALID,0,VALID,100,VALID,0,VALID,19.4407,VALID,93,VALID,0.200648,
2005-09-24, 03:11:00,VALID,918.074,VALID,0,VALID,100,VALID,-0.0169808,VALID,19.4536,VALID,93,VALID,0.301829,
2005-09-24, 03:12:00,VALID,918.086,VALID,0,VALID,100,VALID,-0.0339617,VALID,19.4332,VALID,93,VALID,0.251563,
2005-09-24, 03:13:00,VALID,918.109,VALID,0,VALID,100,VALID,0,VALID,19.4429,VALID,93,VALID,0.00260417,
2005-09-24, 03:14:00,VALID,918.124,VALID,0,VALID,100,VALID,0,VALID,19.4464,VALID,93,VALID,0.0608259,
2005-09-24, 03:15:00,VALID,918.133,VALID,0,VALID,100,VALID,0,VALID,19.4397,VALID,93,VALID,0.114281,
2005-09-24, 03:16:00,VALID,918.139,VALID,0,VALID,100,VALID,-0.0169808,VALID,19.4491,VALID,93,VALID,0.0660342,
2005-09-24, 03:17:00,VALID,918.13,VALID,0,VALID,100,VALID,0,VALID,19.469,VALID,93,VALID,0,
2005-09-24, 03:18:00,VALID,918.129,VALID,0,VALID,100,VALID,0,VALID,19.4822,VALID,93,VALID,0,
2005-09-24, 03:19:00,VALID,918.14,VALID,0,VALID,100,VALID,0,VALID,19.4623,VALID,93,VALID,0.344815,
2005-09-24, 03:20:00,VALID,918.163,VALID,0,VALID,100,VALID,0,VALID,19.4529,VALID,93,VALID,0.931076,
2005-09-24, 03:21:00,VALID,918.2,VALID,0,VALID,100,VALID,0.0169808,VALID,19.4459,VALID,92,VALID,1.28182,
2005-09-24, 03:22:00,VALID,918.228,VALID,0,VALID,100,VALID,0,VALID,19.469,VALID,95,VALID,1.39863,
2005-09-24, 03:23:00,VALID,918.255,VALID,0,VALID,100,VALID,-0.0169808,VALID,19.4752,VALID,101,VALID,1.44327,
2005-09-24, 03:24:00,VALID,918.264,VALID,0,VALID,100,VALID,0,VALID,19.4814,VALID,103,VALID,1.52834,
2005-09-24, 03:25:00,VALID,918.287,VALID,0,VALID,100,VALID,0.0339617,VALID,19.505,VALID,100,VALID,1.21298,
2005-09-24, 03:26:00,VALID,918.301,VALID,0,VALID,100,VALID,0,VALID,19.514,VALID,98,VALID,1.24873,
2005-09-24, 03:27:00,VALID,918.313,VALID,0,VALID,100,VALID,0,VALID,19.5338,VALID,96,VALID,0.938388,
2005-09-24, 03:28:00,VALID,918.329,VALID,0,VALID,100,VALID,0,VALID,19.5269,VALID,106,VALID,0.940358,
2005-09-24, 03:29:00,VALID,918.352,VALID,0,VALID,100,VALID,0,VALID,19.5435,VALID,107,VALID,0.837754,
2005-09-24, 03:30:00,VALID,918.39,VALID,0,VALID,100,VALID,0,VALID,19.5294,VALID,110,VALID,0.920455,
2005-09-24, 03:31:00,VALID,918.431,VALID,0,VALID,100,VALID,0,VALID,19.5564,VALID,115,VALID,0.761905,
2005-09-24, 03:32:00,VALID,918.48,VALID,0,VALID,100,VALID,-0.0169808,VALID,19.543,VALID,123,VALID,0.804688,
2005-09-24, 03:33:00,VALID,918.527,VALID,0,VALID,100,VALID,0,VALID,19.5696,VALID,108,VALID,1.09475,
2005-09-24, 03:34:00,VALID,918.543,VALID,0,VALID,100,VALID,0,VALID,19.5527,VALID,108,VALID,1.13839,
2005-09-24, 03:35:00,VALID,918.555,VALID,0,VALID,100,VALID,0,VALID,19.5659,VALID,97,VALID,1.9723,
2005-09-24, 03:36:00,VALID,918.561,VALID,0,VALID,100,VALID,0,VALID,19.5723,VALID,125,VALID,1.83958,
2005-09-24, 03:37:00,VALID,918.574,VALID,0,VALID,100,VALID,-0.0169808,VALID,19.5661,VALID,116,VALID,1.976,
2005-09-24, 03:38:00,VALID,918.563,VALID,0,VALID,100,VALID,0,VALID,19.5621,VALID,87,VALID,1.78359,
2005-09-24, 03:39:00,VALID,918.575,VALID,0,VALID,100,VALID,-0.0169808,VALID,19.5626,VALID,94,VALID,2.08103,
2005-09-24, 03:40:00,VALID,918.587,VALID,0,VALID,100,VALID,0,VALID,19.5857,VALID,85,VALID,1.69699,
2005-09-24, 03:41:00,VALID,918.58,VALID,0,VALID,100,VALID,0,VALID,19.5852,VALID,93,VALID,2.13262,
2005-09-24, 03:42:00,VALID,918.573,VALID,0,VALID,100,VALID,0,VALID,19.5914,VALID,105,VALID,1.83212,
2005-09-24, 03:43:00,VALID,918.566,VALID,0,VALID,100,VALID,0,VALID,19.6011,VALID,101,VALID,1.42839,
2005-09-24, 03:44:00,VALID,918.558,VALID,0,VALID,100,VALID,0,VALID,19.6046,VALID,102,VALID,0.891352,